Location: DARK SKY Beskydy - Park tmavé oblohy, www.darkskybeskydy.cz
(49.4926°N, 18.5016°E)
Time: 10:01:22
(UTC+02:00)

Transit 4A - Pass Details

Date: 01 March 2024
Orbit: 871 x 971 km, 66.8° (Epoch: 24 April)

Event Time Altitude Azimuth Distance (km) Brightness Sun altitude
Exits shadow 04:01:26 12° 324° (NW) 2,455 9.9 -24.4°
Maximum altitude 04:04:03 15° 352° (N) 2,226 10.0 -24.0°
Drops below altitude 10° 04:07:22 10° 27° (NNE) 2,557 10.7 -23.5°
Sets 04:11:04 0° 50° (NE) 3,483 12.0 -22.9°
